Current weather by "City, St" or "zip code"  
 

Current Conditions: Olive Branch, Olive Branch Airport, MS

NULL


70.0 F

Last Updated on Sep 18 2020, 12:55 am CDT
Humidity: 88%
Wind Speed: N 11.5 mph
Barometer 29.99 in
Dewpoint: 66.2 F
Visibility: 10.00 mi
Precip: --
Heat Index: NA
Wind Chill: NA
Current conditions at:

Olive Branch, Olive Branch Airport, MS (KOLV)

Lat: 34.97889 Lon: 89.78694

Local Radar Image active severe weather and emergency alerts image image weather storm and storm spotter reports image weather observation monitoring service image
Local
Radar
Active
Alerts
Storm Reports Obs
Monitoring

Sign-up For Email & Text Message Weather Alert Notification Services



Advertise Here

Observation History for Olive Branch, Olive Branch Airport, MS


Time Wind
(mph)
Vis
(mi)
Weather Precip (in) Temperature (F) Relative
Humidity
Wind
Chill
(F)
Heat
Index
(F)
Pressure
Air Dwpt altimeter
(in)
sea level
(mb)
Rmks
12:55 am CDT N 11.5 10.00 NULL -- 70.0 66.2 88% NA NA 29.99 M
11:55 pm CDT N 8.1 10.00 NULL -- 70.0 64.4 83% NA NA 29.99 M
10:55 pm CDT N 6.9 10.00 NULL -- 70.0 64.4 83% NA NA 29.98 M
9:55 pm CDT N 6.9 10.00 NULL -- 73.0 62.6 69% NA NA 29.98 M
8:55 pm CDT N 5.8 10.00 NULL -- 72.0 62.6 73% NA NA 29.96 M
7:50 pm CDT N 5.8 10.00 Mostly Cloudy -- 72.0 62.6 73% NA NA 29.94 M
6:50 pm CDT N 5.8 10.00 Mostly Cloudy -- 75.0 59.0 57% NA NA 29.93 M
5:50 pm CDT N 8.1 10.00 Mostly Cloudy -- 77.0 53.6 44% NA NA 29.93 M
4:50 pm CDT N 12.7 10.00 Mostly Cloudy -- 79.0 53.6 42% NA NA 29.92 M
3:50 pm CDT N 15.0 10.00 Mostly Cloudy -- 82.0 59.0 45% NA 82 29.92 M
2:50 pm CDT NW 15.0 10.00 Mostly Cloudy -- 84.0 68.0 58% NA 87 29.92 M
1:50 pm CDT N 9.2 G 15.0 10.00 Mostly Cloudy -- 84.0 69.8 62% NA 88 29.93 M
12:50 pm CDT NE 10.4 10.00 Mostly Cloudy -- 84.0 69.8 62% NA 88 29.95 M
11:50 am CDT N 9.2 G 17.3 10.00 Mostly Cloudy -- 81.0 69.8 70% NA 85 29.97 M
10:50 am CDT N 11.5 10.00 Partly Cloudy -- 79.0 71.6 79% NA NA 29.98 M
9:50 am CDT N 9.2 10.00 A Few Clouds -- 79.0 71.6 79% NA NA 29.98 M
8:50 am CDT NE 9.2 10.00 Clear -- 75.0 69.8 83% NA NA 29.96 M
7:50 am CDT N 5.8 10.00 Clear -- 72.0 69.8 94% NA NA 29.94 M
6:50 am CDT N 6.9 10.00 A Few Clouds -- 70.0 69.8 100% NA NA 29.93 M
5:55 am CDT N 5.8 10.00 Fair -- 68.0 68.0 100% NA NA 29.91 M
4:55 am CDT N 6.9 10.00 NULL -- 70.0 69.8 100% NA NA 29.91 M
3:55 am CDT N 6.9 10.00 NULL -- 70.0 69.8 100% NA NA 29.91 M
2:55 am CDT N 4.6 10.00 NULL -- 68.0 68.0 100% NA NA 29.93 M
1:55 am CDT N 4.6 10.00 NULL -- 70.0 68.0 94% NA NA 29.94 M

Regional Weather Observation


West Memphis, West Memphis Municipal Airport, AR (KAWM)

Fair
70.0 F

Millington, Millington Municipal Airport, TN (KNQA)

Fair
70.0 F

Olive Branch, Olive Branch Airport, MS (KOLV)

NULL
70.0 F

Blytheville, Blytheville Municipal Airport, AR (KHKA)

Fair
69.0 F

Eaker Air Force Base, AR (KBYH)

Mostly Cloudy
82.0 F

Tunica, Tunica Municipal Airport, MS (KUTA)

Fair
68.0 F